Charleston, SC

3:00 AM EDT on October 18, 2017 (GMT -0400)
Charleston Executive

Weather History for KJZI - March, 2013

Change the Weather History Date:

Monday, March 18, 2013

  Actual Average (KCHS) Record (KCHS)
Temperature  
Mean Temperature 60 °F -  
Max Temperature 66 °F 67 °F 90 °F (1963)
Min Temperature 57 °F 44 °F 28 °F (1941)
Degree Days  
Heating Degree Days 4    
Growing Degree Days 10 (Base 50)    
Moisture  
Dew Point 57 °F    
Average Humidity 85    
Maximum Humidity 94    
Minimum Humidity 64    
Precipitation  
Precipitation 0.01 in - - ()
Sea Level Pressure  
Sea Level Pressure 30.01 in    
Wind  
Wind Speed 6 mph (SE)    
Max Wind Speed 14 mph    
Max Gust Speed 17 mph    
Visibility 7 miles    
Events Rain , Thunderstorm    
Averages and records for this station are not official NWS values.
T = Trace of Precipitation, MM = Missing Value Source: NWS Daily Summary

Daily Weather History Graph

Daily Weather History Graph

Search for Another Location

Airport or City:

Trip Planner

Search our weather history database for the weather conditions in past years. The results will help you decide how hot, cold, wet, or windy it might be!

Date:

Astronomy

Mar. 18, 2013 Rise Set
Actual Time 7:26 AM EDT 7:30 PM EDT
Civil Twilight 7:01 AM EDT 7:54 PM EDT
Nautical Twilight 6:32 AM EDT 8:23 PM EDT
Astronomical Twilight 6:04 AM EDT 8:52 PM EDT
Moon 11:42 AM EDT 1:10 AM EDT
Length of Visible Light 12h 53m
Length of Day
12h 04m
Waxing Crescent, 40% of the Moon is Illuminated
Mar 18
Waxing Crescent
Mar 19
First Quarter
Mar 27
Full
Apr 3
Last Quarter
Apr 10
New

Hourly Weather History & Observations

Time (EDT) Temp. Dew Point Humidity Pressure Visibility Wind Dir Wind Speed Gust Speed Precip Events Conditions
12:15 AM 64.4 °F 51.8 °F 64% 30.05 in 10.0 mi SW 8.1 mph - 0.00 in   Scattered Clouds
12:35 AM 64.4 °F 53.6 °F 68% 30.04 in 10.0 mi SW 10.4 mph - 0.00 in   Clear
12:55 AM 64.4 °F 55.4 °F 73% 30.04 in 10.0 mi SW 9.2 mph 17.3 mph 0.00 in   Partly Cloudy
1:15 AM 64.4 °F 55.4 °F 73% 30.04 in 10.0 mi SSW 10.4 mph - 0.00 in   Clear
1:35 AM 64.4 °F 55.4 °F 73% 30.04 in 10.0 mi SSW 10.4 mph 16.1 mph 0.00 in   Clear
1:55 AM 64.4 °F 55.4 °F 73% 30.03 in 10.0 mi SW 9.2 mph - 0.00 in   Clear
2:15 AM 64.4 °F 55.4 °F 73% 30.03 in 10.0 mi SW 8.1 mph 16.1 mph 0.00 in   Scattered Clouds
2:35 AM 64.4 °F 57.2 °F 77% 30.02 in 10.0 mi SW 8.1 mph - 0.00 in   Mostly Cloudy
2:55 AM 64.4 °F 57.2 °F 77% 30.02 in 10.0 mi SW 9.2 mph - 0.00 in   Overcast
3:15 AM 64.4 °F 57.2 °F 77% 30.02 in 10.0 mi SW 8.1 mph - 0.00 in   Overcast
3:35 AM 64.4 °F 57.2 °F 77% 30.02 in 10.0 mi SW 4.6 mph - 0.00 in   Overcast
3:55 AM 64.4 °F 57.2 °F 77% 30.02 in 10.0 mi Calm Calm - 0.00 in   Overcast
4:15 AM 62.6 °F 57.2 °F 82% 30.03 in 6.0 mi Calm Calm - 0.00 in Rain Light Rain
4:35 AM 62.6 °F 59.0 °F 88% 30.04 in 6.0 mi Calm Calm - 0.00 in   Light Drizzle
4:55 AM 60.8 °F 57.2 °F 88% 30.03 in 7.0 mi Calm Calm - 0.00 in   Light Drizzle
5:15 AM 60.8 °F 57.2 °F 88% 30.03 in 9.0 mi Calm Calm - 0.00 in   Mostly Cloudy
5:35 AM 60.8 °F 57.2 °F 88% 30.04 in 7.0 mi Calm Calm - 0.00 in Rain Light Rain
5:55 AM 60.8 °F 57.2 °F 88% 30.04 in 5.0 mi Calm Calm - 0.01 in   Light Drizzle
6:15 AM 59.0 °F 57.2 °F 94% 30.05 in 10.0 mi Calm Calm - 0.00 in   Overcast
6:35 AM 60.8 °F 57.2 °F 88% 30.05 in 9.0 mi Calm Calm - 0.00 in   Mostly Cloudy
6:55 AM 60.8 °F 57.2 °F 88% 30.06 in 10.0 mi NNW 4.6 mph - 0.00 in   Mostly Cloudy
7:15 AM 60.8 °F 55.4 °F 82% 30.06 in 10.0 mi Calm Calm - 0.00 in   Overcast
7:35 AM 59.0 °F 55.4 °F 88% 30.06 in 10.0 mi Calm Calm - 0.00 in   Overcast
7:55 AM 60.8 °F 55.4 °F 82% 30.08 in 10.0 mi Calm Calm - 0.00 in   Overcast
8:15 AM 57.2 °F 55.4 °F 94% 30.07 in 6.0 mi Calm Calm - 0.00 in   Overcast
8:35 AM 59.0 °F 57.2 °F 94% 30.08 in 4.0 mi Calm Calm - 0.00 in   Overcast
8:55 AM 59.0 °F 57.2 °F 94% 30.09 in 5.0 mi Calm Calm - 0.00 in   Overcast
9:15 AM 60.8 °F 57.2 °F 88% 30.08 in 6.0 mi Calm Calm - 0.00 in   Overcast
9:35 AM 60.8 °F 57.2 °F 88% 30.09 in 7.0 mi Calm Calm - 0.00 in   Overcast
9:55 AM 60.8 °F 57.2 °F 88% 30.09 in 8.0 mi Calm Calm - 0.00 in   Mostly Cloudy
10:15 AM 62.6 °F 57.2 °F 82% 30.09 in 9.0 mi Calm Calm - 0.00 in   Mostly Cloudy
10:35 AM 62.6 °F 57.2 °F 82% 30.10 in 9.0 mi East 6.9 mph - 0.00 in   Overcast
10:55 AM 62.6 °F 57.2 °F 82% 30.09 in 8.0 mi East 8.1 mph - 0.00 in   Mostly Cloudy
11:15 AM 62.6 °F 57.2 °F 82% 30.09 in 5.0 mi East 6.9 mph - 0.00 in   Haze
11:35 AM 62.6 °F 57.2 °F 82% 30.09 in 5.0 mi East 8.1 mph - 0.00 in   Haze
11:55 AM 62.6 °F 55.4 °F 77% 30.08 in 5.0 mi East 8.1 mph - 0.00 in   Haze
12:15 PM 60.8 °F 55.4 °F 82% 30.07 in 5.0 mi East 10.4 mph - 0.00 in   Haze
12:35 PM 60.8 °F 55.4 °F 82% 30.07 in 4.0 mi East 11.5 mph - 0.00 in   Overcast
1:15 PM 59.0 °F 55.4 °F 88% 30.06 in 5.0 mi ENE 11.5 mph - 0.00 in   Overcast
1:35 PM 60.8 °F 55.4 °F 82% 30.05 in 5.0 mi East 9.2 mph - 0.00 in   Haze
1:55 PM 60.8 °F 55.4 °F 82% 30.04 in 4.0 mi East 10.4 mph - 0.00 in   Haze
2:15 PM 59.0 °F 55.4 °F 88% 30.02 in 5.0 mi East 13.8 mph - 0.00 in   Overcast
2:35 PM 60.8 °F 55.4 °F 82% 30.01 in 5.0 mi East 12.7 mph - 0.00 in   Haze
2:55 PM 59.0 °F 55.4 °F 88% 30.01 in 5.0 mi East 10.4 mph - 0.00 in   Overcast
3:15 PM 59.0 °F 55.4 °F 88% 30.00 in 5.0 mi East 8.1 mph - 0.00 in   Overcast
3:35 PM 59.0 °F 55.4 °F 88% 29.99 in 5.0 mi East 8.1 mph - 0.00 in   Overcast
3:55 PM 60.8 °F 55.4 °F 82% 29.99 in 5.0 mi East 8.1 mph - 0.00 in   Overcast
4:15 PM 60.8 °F 55.4 °F 82% 29.97 in 5.0 mi East 8.1 mph - 0.00 in   Overcast
4:35 PM 60.8 °F 55.4 °F 82% 29.96 in 5.0 mi East 10.4 mph - 0.00 in   Haze
4:55 PM 60.8 °F 57.2 °F 88% 29.97 in 4.0 mi East 9.2 mph - 0.00 in   Overcast
5:15 PM 60.8 °F 57.2 °F 88% 29.96 in 4.0 mi ESE 8.1 mph - 0.00 in   Overcast
5:35 PM 60.8 °F 57.2 °F 88% 29.96 in 4.0 mi East 6.9 mph - 0.00 in   Overcast
6:15 PM 62.6 °F 57.2 °F 82% 29.95 in 5.0 mi East 4.6 mph - 0.00 in   Overcast
6:35 PM 62.6 °F 57.2 °F 82% 29.94 in 5.0 mi ESE 6.9 mph - 0.00 in   Haze
6:55 PM 62.6 °F 57.2 °F 82% 29.93 in 5.0 mi East 8.1 mph - 0.00 in   Haze
7:15 PM 62.6 °F 57.2 °F 82% 29.93 in 5.0 mi East 6.9 mph - 0.00 in   Clear
7:35 PM 60.8 °F 57.2 °F 88% 29.92 in 5.0 mi Calm Calm - 0.00 in   Clear
7:55 PM 59.0 °F 57.2 °F 94% 29.91 in 5.0 mi Calm Calm - 0.00 in   Clear
8:15 PM 59.0 °F 57.2 °F 94% 29.90 in 5.0 mi East 4.6 mph - 0.00 in   Clear
8:35 PM 59.0 °F 57.2 °F 94% 29.90 in 5.0 mi Calm Calm - 0.00 in   Clear
8:55 PM 59.0 °F 57.2 °F 94% 29.91 in 5.0 mi Calm Calm - 0.00 in   Scattered Clouds
9:15 PM 60.8 °F 57.2 °F 88% 29.91 in 5.0 mi Calm Calm - 0.00 in   Mostly Cloudy
9:35 PM 59.0 °F 57.2 °F 94% 29.90 in 6.0 mi Calm Calm - 0.00 in   Overcast
9:55 PM 60.8 °F 59.0 °F 94% 29.90 in 7.0 mi SSW 3.5 mph - 0.00 in   Mostly Cloudy
10:15 PM 62.6 °F 60.8 °F 94% 29.88 in 10.0 mi SE 8.1 mph - 0.00 in   Scattered Clouds
10:35 PM 64.4 °F 60.8 °F 88% 29.88 in 10.0 mi South 8.1 mph - 0.00 in   Clear
10:55 PM 62.6 °F 60.8 °F 94% 29.89 in 10.0 mi South 10.4 mph - 0.00 in   Clear
11:15 PM 62.6 °F 60.8 °F 94% 29.89 in 10.0 mi South 10.4 mph - 0.00 in   Scattered Clouds
11:35 PM 64.4 °F 60.8 °F 88% 29.89 in 10.0 mi South 9.2 mph - 0.00 in Thunderstorm Scattered Clouds
11:55 PM 66.2 °F 62.6 °F 88% 29.89 in 7.0 mi SW 4.6 mph - 0.00 in Thunderstorm Thunderstorm